Time,TemperatureF,DewpointF,PressureIn,WindDirection,WindDirectionDegrees,WindSpeedMPH,WindSpeedGustMPH,Humidity,HourlyPrecipIn,Conditions,Clouds,dailyrainin,SolarRadiationWatts/m^2,SoftwareType,DateUTC
2013-03-25 00:03:00,44.0,33.0,-100.00,West,276,7.0,17.0,66,0.00,,,1.29,0.000000,,2013-03-25 04:03:00,
2013-03-25 00:33:00,38.0,27.0,-100.00,WSW,254,8.0,20.0,65,0.01,,,1.30,0.000000,,2013-03-25 04:33:00,
2013-03-25 00:43:00,38.0,27.0,-100.00,WSW,254,8.0,20.0,65,0.01,,,1.30,0.000000,,2013-03-25 04:43:00,
2013-03-25 00:52:00,38.0,27.0,-100.00,WSW,254,8.0,20.0,65,0.01,,,1.30,0.000000,,2013-03-25 04:52:00,
2013-03-25 01:03:00,38.0,27.0,-100.00,WSW,254,8.0,20.0,65,0.01,,,1.30,0.000000,,2013-03-25 05:03:00,
2013-03-25 01:33:00,38.0,29.0,-100.00,NW,304,8.0,22.0,70,0.00,,,1.30,0.000000,,2013-03-25 05:33:00,
2013-03-25 01:42:00,38.0,29.0,-100.00,NW,304,8.0,22.0,70,0.00,,,1.30,0.000000,,2013-03-25 05:42:00,
2013-03-25 01:53:00,38.0,29.0,-100.00,NW,304,8.0,22.0,70,0.00,,,1.30,0.000000,,2013-03-25 05:53:00,
2013-03-25 02:02:00,38.0,29.0,-100.00,NW,304,8.0,22.0,70,0.00,,,1.30,0.000000,,2013-03-25 06:02:00,
2013-03-25 02:33:00,36.0,26.0,-100.00,WNW,297,6.0,23.0,68,0.00,,,1.10,0.000000,,2013-03-25 06:33:00,
2013-03-25 02:42:00,36.0,26.0,-100.00,WNW,297,6.0,23.0,68,0.00,,,1.10,0.000000,,2013-03-25 06:42:00,
2013-03-25 02:53:00,36.0,26.0,-100.00,WNW,297,6.0,23.0,68,0.00,,,1.10,0.000000,,2013-03-25 06:53:00,
2013-03-25 03:02:00,36.0,26.0,-100.00,WNW,297,6.0,23.0,68,0.00,,,1.10,0.000000,,2013-03-25 07:02:00,
2013-03-25 03:32:00,34.0,26.0,-100.00,WNW,284,6.0,16.0,71,0.00,,,1.01,0.000000,,2013-03-25 07:32:00,
2013-03-25 03:42:00,34.0,26.0,-100.00,WNW,284,6.0,16.0,71,0.00,,,1.01,0.000000,,2013-03-25 07:42:00,
2013-03-25 03:53:00,34.0,26.0,-100.00,WNW,284,6.0,16.0,71,0.00,,,1.01,0.000000,,2013-03-25 07:53:00,
2013-03-25 04:03:00,34.0,26.0,-100.00,WNW,284,6.0,16.0,71,0.00,,,1.01,0.000000,,2013-03-25 08:03:00,
2013-03-25 04:32:00,33.0,21.0,-100.00,WNW,288,8.0,19.0,62,0.00,,,0.96,0.000000,,2013-03-25 08:32:00,
2013-03-25 04:43:00,33.0,21.0,-100.00,WNW,288,8.0,19.0,62,0.00,,,0.96,0.000000,,2013-03-25 08:43:00,
2013-03-25 04:52:00,33.0,21.0,-100.00,WNW,288,8.0,19.0,62,0.00,,,0.96,0.000000,,2013-03-25 08:52:00,
2013-03-25 05:02:00,33.0,21.0,-100.00,WNW,288,8.0,19.0,62,0.00,,,0.96,0.000000,,2013-03-25 09:02:00,
2013-03-25 05:33:00,32.0,23.0,-100.00,WNW,299,3.0,13.0,68,0.00,,,0.84,0.000000,,2013-03-25 09:33:00,
2013-03-25 05:43:00,32.0,23.0,-100.00,WNW,299,3.0,13.0,68,0.00,,,0.84,0.000000,,2013-03-25 09:43:00,
2013-03-25 05:53:00,32.0,23.0,-100.00,WNW,299,3.0,13.0,68,0.00,,,0.84,0.000000,,2013-03-25 09:53:00,
2013-03-25 06:03:00,32.0,23.0,-100.00,WNW,299,3.0,13.0,68,0.00,,,0.84,0.000000,,2013-03-25 10:03:00,
2013-03-25 06:33:00,30.0,22.0,-100.00,NW,312,7.0,15.0,73,0.00,,,0.73,0.000000,,2013-03-25 10:33:00,
2013-03-25 06:43:00,30.0,22.0,-100.00,NW,312,7.0,15.0,73,0.00,,,0.73,0.000000,,2013-03-25 10:43:00,
2013-03-25 06:54:00,30.0,22.0,-100.00,NW,312,7.0,15.0,73,0.00,,,0.73,0.000000,,2013-03-25 10:54:00,
2013-03-25 07:03:00,30.0,22.0,-100.00,NW,312,7.0,15.0,73,0.00,,,0.73,0.000000,,2013-03-25 11:03:00,
2013-03-25 07:33:00,29.0,26.0,-100.00,WNW,299,4.0,10.0,87,0.00,,,0.42,0.000000,,2013-03-25 11:33:00,
2013-03-25 07:43:00,29.0,26.0,-100.00,WNW,299,4.0,10.0,87,0.00,,,0.42,0.000000,,2013-03-25 11:43:00,
2013-03-25 07:53:00,29.0,26.0,-100.00,WNW,299,4.0,10.0,87,0.00,,,0.42,0.000000,,2013-03-25 11:53:00,
2013-03-25 08:03:00,29.0,26.0,-100.00,WNW,299,4.0,10.0,87,0.00,,,0.42,0.000000,,2013-03-25 12:03:00,
2013-03-25 08:33:00,29.0,23.0,-100.00,West,270,7.0,15.0,78,0.00,,,0.30,1.000000,,2013-03-25 12:33:00,
2013-03-25 08:43:00,29.0,23.0,-100.00,West,270,7.0,15.0,78,0.00,,,0.30,1.000000,,2013-03-25 12:43:00,
2013-03-25 08:54:00,29.0,23.0,-100.00,West,270,7.0,15.0,78,0.00,,,0.30,1.000000,,2013-03-25 12:54:00,
2013-03-25 09:03:00,29.0,23.0,-100.00,West,270,7.0,15.0,78,0.00,,,0.30,1.000000,,2013-03-25 13:03:00,
2013-03-25 09:32:00,28.0,23.0,-100.00,WNW,296,2.0,11.0,81,0.00,,,0.26,17.000000,,2013-03-25 13:32:00,
2013-03-25 09:43:00,28.0,23.0,-100.00,WNW,296,2.0,11.0,81,0.00,,,0.26,17.000000,,2013-03-25 13:43:00,
2013-03-25 09:53:00,28.0,23.0,-100.00,WNW,296,2.0,11.0,81,0.00,,,0.26,17.000000,,2013-03-25 13:53:00,
2013-03-25 10:03:00,28.0,23.0,-100.00,WNW,296,2.0,11.0,81,0.00,,,0.26,17.000000,,2013-03-25 14:03:00,
2013-03-25 10:33:00,29.0,22.0,-100.00,West,273,6.0,18.0,74,0.00,,,0.24,56.000000,,2013-03-25 14:33:00,
2013-03-25 10:43:00,29.0,22.0,-100.00,West,273,6.0,18.0,74,0.00,,,0.24,56.000000,,2013-03-25 14:43:00,
2013-03-25 10:53:00,29.0,22.0,-100.00,West,273,6.0,18.0,74,0.00,,,0.24,56.000000,,2013-03-25 14:53:00,
2013-03-25 11:03:00,29.0,22.0,-100.00,West,273,6.0,18.0,74,0.00,,,0.24,56.000000,,2013-03-25 15:03:00,
2013-03-25 11:33:00,31.0,21.0,-100.00,WNW,283,6.0,15.0,67,0.00,,,0.24,97.000000,,2013-03-25 15:33:00,
2013-03-25 11:43:00,31.0,21.0,-100.00,WNW,283,6.0,15.0,67,0.00,,,0.24,97.000000,,2013-03-25 15:43:00,
2013-03-25 11:54:00,31.0,21.0,-100.00,WNW,283,6.0,15.0,67,0.00,,,0.24,97.000000,,2013-03-25 15:54:00,
2013-03-25 12:03:00,31.0,21.0,-100.00,WNW,283,6.0,15.0,67,0.00,,,0.24,97.000000,,2013-03-25 16:03:00,
2013-03-25 12:33:00,32.0,22.0,-100.00,West,276,7.0,21.0,67,0.03,,,0.26,185.000000,,2013-03-25 16:33:00,
2013-03-25 12:44:00,32.0,22.0,-100.00,West,276,7.0,21.0,67,0.03,,,0.26,185.000000,,2013-03-25 16:44:00,
2013-03-25 12:53:00,32.0,22.0,-100.00,West,276,7.0,21.0,67,0.03,,,0.26,185.000000,,2013-03-25 16:53:00,
2013-03-25 13:03:00,32.0,22.0,-100.00,West,276,7.0,21.0,67,0.03,,,0.26,185.000000,,2013-03-25 17:03:00,
2013-03-25 13:33:00,33.0,23.0,-100.00,West,277,7.0,21.0,67,0.00,,,0.26,337.000000,,2013-03-25 17:33:00,
2013-03-25 13:43:00,33.0,23.0,-100.00,West,277,7.0,21.0,67,0.00,,,0.26,337.000000,,2013-03-25 17:43:00,
2013-03-25 13:53:00,33.0,23.0,-100.00,West,277,7.0,21.0,67,0.00,,,0.26,337.000000,,2013-03-25 17:53:00,
2013-03-25 14:04:00,33.0,23.0,-100.00,West,277,7.0,21.0,67,0.00,,,0.26,337.000000,,2013-03-25 18:04:00,
2013-03-25 14:33:00,33.0,22.0,-100.00,West,272,9.0,20.0,63,0.00,,,0.26,228.000000,,2013-03-25 18:33:00,
2013-03-25 14:43:00,33.0,22.0,-100.00,West,272,9.0,20.0,63,0.00,,,0.26,228.000000,,2013-03-25 18:43:00,
2013-03-25 14:53:00,33.0,22.0,-100.00,West,272,9.0,20.0,63,0.00,,,0.26,228.000000,,2013-03-25 18:53:00,
2013-03-25 15:03:00,33.0,22.0,-100.00,West,272,9.0,20.0,63,0.00,,,0.26,228.000000,,2013-03-25 19:03:00,
2013-03-25 15:33:00,34.0,24.0,-100.00,WNW,286,6.0,20.0,67,0.00,,,0.26,224.000000,,2013-03-25 19:33:00,
2013-03-25 15:43:00,34.0,24.0,-100.00,WNW,286,6.0,20.0,67,0.00,,,0.26,224.000000,,2013-03-25 19:43:00,
2013-03-25 15:53:00,34.0,24.0,-100.00,WNW,286,6.0,20.0,67,0.00,,,0.26,224.000000,,2013-03-25 19:53:00,
2013-03-25 16:02:00,34.0,24.0,-100.00,WNW,286,6.0,20.0,67,0.00,,,0.26,224.000000,,2013-03-25 20:02:00,
2013-03-25 16:32:00,34.0,22.0,-100.00,WNW,285,11.0,25.0,62,0.00,,,0.26,508.000000,,2013-03-25 20:32:00,
2013-03-25 16:42:00,34.0,22.0,-100.00,WNW,285,11.0,25.0,62,0.00,,,0.26,508.000000,,2013-03-25 20:42:00,
2013-03-25 16:52:00,34.0,22.0,-100.00,WNW,285,11.0,25.0,62,0.00,,,0.26,508.000000,,2013-03-25 20:52:00,
2013-03-25 17:03:00,34.0,22.0,-100.00,WNW,285,11.0,25.0,62,0.00,,,0.26,508.000000,,2013-03-25 21:03:00,
2013-03-25 17:33:00,35.0,24.0,-100.00,WNW,299,8.0,18.0,65,0.00,,,0.26,379.000000,,2013-03-25 21:33:00,
2013-03-25 17:43:00,35.0,24.0,-100.00,WNW,299,8.0,18.0,65,0.00,,,0.26,379.000000,,2013-03-25 21:43:00,
2013-03-25 17:52:00,35.0,24.0,-100.00,WNW,299,8.0,18.0,65,0.00,,,0.26,379.000000,,2013-03-25 21:52:00,
2013-03-25 18:03:00,35.0,24.0,-100.00,WNW,299,8.0,18.0,65,0.00,,,0.26,379.000000,,2013-03-25 22:03:00,
2013-03-25 18:33:00,33.0,25.0,-100.00,WNW,288,6.0,15.0,71,0.00,,,0.26,247.000000,,2013-03-25 22:33:00,
2013-03-25 18:43:00,33.0,25.0,-100.00,WNW,288,6.0,15.0,71,0.00,,,0.26,247.000000,,2013-03-25 22:43:00,
2013-03-25 18:52:00,33.0,25.0,-100.00,WNW,288,6.0,15.0,71,0.00,,,0.26,247.000000,,2013-03-25 22:52:00,
2013-03-25 19:03:00,33.0,25.0,-100.00,WNW,288,6.0,15.0,71,0.00,,,0.26,247.000000,,2013-03-25 23:03:00,
2013-03-25 19:33:00,31.0,21.0,-100.00,WNW,286,8.0,22.0,65,0.00,,,0.18,70.000000,,2013-03-25 23:33:00,
2013-03-25 19:43:00,31.0,21.0,-100.00,WNW,286,8.0,22.0,65,0.00,,,0.18,70.000000,,2013-03-25 23:43:00,
2013-03-25 19:53:00,31.0,21.0,-100.00,WNW,286,8.0,22.0,65,0.00,,,0.18,70.000000,,2013-03-25 23:53:00,
2013-03-25 20:02:00,31.0,21.0,-100.00,WNW,286,8.0,22.0,65,0.00,,,0.18,70.000000,,2013-03-26 00:02:00,
2013-03-25 21:33:00,30.0,20.0,-100.00,NW,309,6.0,17.0,67,-99.99,,,0.04,0.000000,,2013-03-26 01:33:00,
2013-03-25 21:42:00,30.0,20.0,-100.00,NW,309,6.0,17.0,67,-99.99,,,0.04,0.000000,,2013-03-26 01:42:00,
2013-03-25 21:53:00,30.0,20.0,-100.00,NW,309,6.0,17.0,67,-99.99,,,0.04,0.000000,,2013-03-26 01:53:00,
2013-03-25 22:02:00,30.0,20.0,-100.00,NW,309,6.0,17.0,67,-99.99,,,0.04,0.000000,,2013-03-26 02:02:00,
2013-03-25 22:32:00,30.0,20.0,-100.00,WNW,300,6.0,19.0,65,0.00,,,0.04,0.000000,,2013-03-26 02:32:00,
2013-03-25 22:43:00,30.0,20.0,-100.00,WNW,300,6.0,19.0,65,0.00,,,0.04,0.000000,,2013-03-26 02:43:00,
2013-03-25 22:52:00,30.0,20.0,-100.00,WNW,300,6.0,19.0,65,0.00,,,0.04,0.000000,,2013-03-26 02:52:00,
2013-03-25 23:02:00,30.0,20.0,-100.00,WNW,300,6.0,19.0,65,0.00,,,0.04,0.000000,,2013-03-26 03:02:00,
2013-03-25 23:34:00,29.0,21.0,-100.00,WNW,301,7.0,19.0,71,0.00,,,0.04,0.000000,,2013-03-26 03:34:00,
2013-03-25 23:43:00,29.0,21.0,-100.00,WNW,301,7.0,19.0,71,0.00,,,0.04,0.000000,,2013-03-26 03:43:00,
2013-03-25 23:53:00,29.0,21.0,-100.00,WNW,301,7.0,19.0,71,0.00,,,0.04,0.000000,,2013-03-26 03:53:00,